Location: Kellogg
(38.0159°N, 90.0546°W)
Time: 03:02:02
(UTC+00:00)

BlueWalker 3 - Pass Details

Date: 26 January 2026
Orbit: 450 x 461 km, 53.2° (Epoch: 14 February)

Event Time Altitude Azimuth Distance (km) Brightness Sun altitude
Rises 23:50:33 0° 271° (W) 2,452 7.1 -7.1°
Reaches altitude 10° 23:53:17 10° 293° (WNW) 1,581 5.3 -7.6°
Maximum altitude 23:55:36 16° 334° (NNW) 1,247 4.1 -8.0°
Drops below altitude 10° 23:57:56 10° 15° (NNE) 1,583 4.2 -8.4°
Enters shadow 23:59:24 - 29° (NNE) 2,019 4.6 -8.7°
